Location: Newark
(43.0000°N, 1.6781°W)
Time: 09:42:54
(UTC+00:00)

Explorer 7 - Pass Details

Date: 20 April 2021
Orbit: 484 x 677 km, 50.3° (Epoch: 07 May)

Event Time Altitude Azimuth Distance (km) Brightness Sun altitude
Rises 03:10:36 0° 292° (WNW) 2,904 - -21.0°
Reaches altitude 10° 03:13:15 10° 278° (W) 2,025 - -20.7°
Maximum altitude 03:16:55 23° 226° (SW) 1,379 - -20.1°
Drops below altitude 10° 03:20:42 10° 174° (S) 2,081 - -19.6°
Exits shadow 03:23:22 - 160° (SSE) 2,972 10.4 -19.2°
Sets 03:23:28 0° 160° (SSE) 3,004 10.4 -19.2°
